Weather History for PAHL - August, 2014

Change the Weather History Date:

Saturday, August 16, 2014

  Actual Average Record
Temperature  
Mean Temperature 61 °F -  
Max Temperature 69 °F - - ()
Min Temperature 53 °F - - ()
Degree Days  
Heating Degree Days 4    
Growing Degree Days 11 (Base 50)    
Moisture  
Dew Point 48 °F    
Average Humidity 70    
Maximum Humidity 94    
Minimum Humidity 38    
Precipitation  
Precipitation 0.05 in - - ()
Sea Level Pressure  
Sea Level Pressure 29.53 in    
Wind  
Wind Speed 6 mph (SE)    
Max Wind Speed 10 mph    
Max Gust Speed -    
Visibility 10 miles    
Events      
T = Trace of Precipitation, MM = Missing Value Source: NWS Daily Summary

Daily Weather History Graph

Daily Weather History Graph

Search for Another Location

Airport or City:

Trip Planner

Search our weather history database for the weather conditions in past years. The results will help you decide how hot, cold, wet, or windy it might be!

Date:

Astronomy

Aug. 16, 2014 Rise Set
Actual Time 6:09 AM AKDT 10:47 PM AKDT
Civil Twilight 4:57 AM AKDT 11:57 PM AKDT
Nautical Twilight 3:02 AM AKDT 1:57 AM AKDT
Astronomical Twilight Sun does not rise Sun does not rise
Moon 11:30 PM AKDT (8/16) 4:11 PM AKDT (8/16)
Length of Visible Light 19h 00m
Length of Day
16h 37m
Waning Gibbous, 57% of the Moon is Illuminated
Aug 16
Waning Gibbous
Aug 17
Last Quarter
Aug 25
New
Sep 2
First Quarter
Sep 8
Full

Hourly Weather History & Observations

Time (AKDT) Temp. Dew Point Humidity Pressure Visibility Wind Dir Wind Speed Gust Speed Precip Events Conditions
12:16 AM 55.4 °F 53.6 °F 94% 29.49 in 10.0 mi South 5.8 mph - N/A   Overcast
12:36 AM 55.4 °F 53.6 °F 94% 29.50 in 10.0 mi South 6.9 mph - 0.01 in   Overcast
12:56 AM 55.4 °F 51.8 °F 88% 29.50 in 8.0 mi South 8.1 mph - 0.02 in   Overcast
1:16 AM 55.4 °F 51.8 °F 88% 29.50 in 5.0 mi South 3.5 mph - 0.01 in   Overcast
1:36 AM 55.4 °F 51.8 °F 88% 29.51 in 10.0 mi South 5.8 mph - 0.02 in   Overcast
1:56 AM 55.4 °F 51.8 °F 88% 29.51 in 10.0 mi South 3.5 mph - 0.02 in   Mostly Cloudy
2:16 AM 55.4 °F 51.8 °F 88% 29.52 in 10.0 mi South 4.6 mph - N/A   Mostly Cloudy
2:36 AM 53.6 °F 51.8 °F 94% 29.52 in 10.0 mi South 4.6 mph - N/A   Mostly Cloudy
2:56 AM 53.6 °F 51.8 °F 94% 29.52 in 10.0 mi South 4.6 mph - N/A   Overcast
3:16 AM 53.6 °F 50.0 °F 88% 29.52 in 10.0 mi South 5.8 mph - N/A   Overcast
3:36 AM 53.6 °F 51.8 °F 94% 29.53 in 10.0 mi South 4.6 mph - N/A   Overcast
4:16 AM 53.6 °F 50.0 °F 88% 29.53 in 10.0 mi South 5.8 mph - N/A   Overcast
4:36 AM 53.6 °F 50.0 °F 88% 29.54 in 10.0 mi South 5.8 mph - N/A   Overcast
4:56 AM 53.6 °F 50.0 °F 88% 29.54 in 10.0 mi South 5.8 mph - N/A   Overcast
5:16 AM 53.6 °F 50.0 °F 88% 29.54 in 10.0 mi SSE 4.6 mph - N/A   Overcast
5:36 AM 53.6 °F 50.0 °F 88% 29.55 in 10.0 mi SSE 4.6 mph - N/A   Overcast
5:56 AM 53.6 °F 50.0 °F 88% 29.55 in 10.0 mi SSE 4.6 mph - N/A   Overcast
6:16 AM 53.6 °F 50.0 °F 88% 29.55 in 10.0 mi SSE 5.8 mph - N/A   Overcast
6:36 AM 53.6 °F 48.2 °F 82% 29.55 in 10.0 mi SSE 4.6 mph - N/A   Overcast
6:56 AM 53.6 °F 48.2 °F 82% 29.55 in 10.0 mi SSE 4.6 mph - N/A   Overcast
7:16 AM 53.6 °F 48.2 °F 82% 29.55 in 10.0 mi SE 4.6 mph - N/A   Overcast
7:36 AM 53.6 °F 48.2 °F 82% 29.55 in 10.0 mi SE 4.6 mph - N/A   Mostly Cloudy
7:56 AM 53.6 °F 48.2 °F 82% 29.55 in 10.0 mi SE 4.6 mph - N/A   Mostly Cloudy
8:16 AM 53.6 °F 48.2 °F 82% 29.56 in 10.0 mi SE 4.6 mph - N/A   Scattered Clouds
8:36 AM 53.6 °F 48.2 °F 82% 29.56 in 10.0 mi SSE 4.6 mph - N/A   Mostly Cloudy
8:56 AM 53.6 °F 48.2 °F 82% 29.56 in 10.0 mi SE 3.5 mph - N/A   Overcast
9:16 AM 55.4 °F 50.0 °F 82% 29.56 in 10.0 mi SE 5.8 mph - N/A   Overcast
9:36 AM 57.2 °F 50.0 °F 77% 29.56 in 10.0 mi SSE 6.9 mph - N/A   Scattered Clouds
9:56 AM 57.2 °F 50.0 °F 77% 29.56 in 10.0 mi SSE 10.4 mph - N/A   Clear
10:16 AM 57.2 °F 48.2 °F 72% 29.56 in 10.0 mi SSE 6.9 mph - N/A   Clear
10:36 AM 59.0 °F 48.2 °F 67% 29.56 in 10.0 mi South 5.8 mph - N/A   Clear
10:56 AM 59.0 °F 48.2 °F 67% 29.56 in 10.0 mi South 4.6 mph - N/A   Clear
11:16 AM 60.8 °F 48.2 °F 63% 29.56 in 10.0 mi South 8.1 mph - N/A   Clear
11:36 AM 60.8 °F 48.2 °F 63% 29.56 in 10.0 mi SE 8.1 mph - N/A   Clear
11:56 AM 60.8 °F 48.2 °F 63% 29.56 in 10.0 mi SSW 9.2 mph - N/A   Clear
12:16 PM 60.8 °F 48.2 °F 63% 29.56 in 10.0 mi South 4.6 mph - N/A   Clear
12:36 PM 62.6 °F 48.2 °F 59% 29.55 in 10.0 mi SSE 5.8 mph - N/A   Clear
12:56 PM 62.6 °F 46.4 °F 55% 29.55 in 10.0 mi SSE 8.1 mph - N/A   Clear
1:16 PM 64.4 °F 46.4 °F 52% 29.55 in 10.0 mi SSE 5.8 mph - N/A   Clear
1:36 PM 64.4 °F 46.4 °F 52% 29.55 in 10.0 mi SSE 6.9 mph - N/A   Clear
1:56 PM 66.2 °F 46.4 °F 49% 29.54 in 10.0 mi SE 8.1 mph - N/A   Clear
2:16 PM 66.2 °F 46.4 °F 49% 29.53 in 10.0 mi ESE 8.1 mph - N/A   Clear
2:36 PM 66.2 °F 46.4 °F 49% 29.53 in 10.0 mi East 8.1 mph - N/A   Scattered Clouds
2:56 PM 66.2 °F 46.4 °F 49% 29.53 in 10.0 mi ESE 9.2 mph - N/A   Mostly Cloudy
3:16 PM 66.2 °F 44.6 °F 46% 29.53 in 10.0 mi East 4.6 mph - N/A   Overcast
3:36 PM 66.2 °F 42.8 °F 43% 29.53 in 10.0 mi South 9.2 mph - N/A   Overcast
3:56 PM 68.0 °F 42.8 °F 40% 29.52 in 10.0 mi SE 6.9 mph - N/A   Overcast
4:16 PM 68.0 °F 42.8 °F 40% 29.52 in 10.0 mi South 8.1 mph - N/A   Overcast
4:36 PM 66.2 °F 41.0 °F 40% 29.51 in 10.0 mi SE 6.9 mph - N/A   Overcast
4:56 PM 66.2 °F 42.8 °F 43% 29.51 in 10.0 mi SE 4.6 mph - N/A   Overcast
5:16 PM 69.8 °F 42.8 °F 38% 29.51 in 10.0 mi ESE 8.1 mph - N/A   Mostly Cloudy
5:36 PM 68.0 °F 44.6 °F 43% 29.50 in 10.0 mi East 9.2 mph - N/A   Mostly Cloudy
5:56 PM 66.2 °F 46.4 °F 49% 29.51 in 10.0 mi East 5.8 mph - N/A   Overcast
6:16 PM 66.2 °F 44.6 °F 46% 29.50 in 10.0 mi East 5.8 mph - N/A   Mostly Cloudy
6:36 PM 66.2 °F 44.6 °F 46% 29.50 in 10.0 mi East 3.5 mph - N/A   Mostly Cloudy
6:56 PM 66.2 °F 46.4 °F 49% 29.50 in 10.0 mi NE 6.9 mph - N/A   Partly Cloudy
7:16 PM 66.2 °F 46.4 °F 49% 29.50 in 10.0 mi NE 4.6 mph - N/A   Mostly Cloudy
7:36 PM 64.4 °F 44.6 °F 49% 29.51 in 10.0 mi SSE 10.4 mph - N/A   Overcast
7:56 PM 59.0 °F 48.2 °F 67% 29.50 in 10.0 mi WSW 6.9 mph - 0.01 in   Overcast
8:16 PM 57.2 °F 48.2 °F 72% 29.50 in 10.0 mi WNW 5.8 mph - N/A   Overcast
8:36 PM 57.2 °F 48.2 °F 72% 29.50 in 10.0 mi NW 4.6 mph - N/A   Mostly Cloudy
8:56 PM 57.2 °F 48.2 °F 72% 29.50 in 10.0 mi North 4.6 mph - N/A   Partly Cloudy
9:16 PM 57.2 °F 50.0 °F 77% 29.50 in 10.0 mi NNE 3.5 mph - N/A   Clear
9:36 PM 57.2 °F 48.2 °F 72% 29.49 in 10.0 mi North 4.6 mph - N/A   Mostly Cloudy
9:56 PM 57.2 °F 48.2 °F 72% 29.49 in 10.0 mi NNE 5.8 mph - N/A   Partly Cloudy
10:16 PM 57.2 °F 48.2 °F 72% 29.50 in 10.0 mi NNE 5.8 mph - N/A   Clear
10:36 PM 57.2 °F 48.2 °F 72% 29.50 in 10.0 mi NE 5.8 mph - N/A   Clear
10:56 PM 57.2 °F 48.2 °F 72% 29.50 in 10.0 mi NE 5.8 mph - N/A   Clear
11:16 PM 57.2 °F 48.2 °F 72% 29.50 in 10.0 mi NE 5.8 mph - N/A   Clear
11:36 PM 55.4 °F 48.2 °F 77% 29.50 in 10.0 mi NE 4.6 mph - N/A   Partly Cloudy
11:56 PM 55.4 °F 48.2 °F 77% 29.50 in 10.0 mi NE 5.8 mph - N/A   Clear